User: anonymous   Login
Location: Bamobli
(6.6379°N, 10.9396°W)
Time: 02:11:43
(UTC+00:00)
Language:

GPS 2-15 Rocket1 - Orbit

View from above orbital plane
View from above orbital plane
View from above satellite
View from above satellite

Ground track
Ground track

The orbit data is extracted from the following two-line orbital elements,

1 22109U 92058B   20221.42084791  .00000460  00000-0  13041-4 0  9993
2 22109  19.7820 254.3084 0036630 334.1210  25.7373 14.73582347499891
Epoch (UTC): 08 August 2020 10:06:01
Eccentricity: 0.0036630
inclination: 19.7820°
perigee height: 624 km
apogee height: 675 km
right ascension of ascending node: 254.3084°
argument of perigee: 334.1210°
revolutions per day: 14.73582347
mean anomaly at epoch: 25.7373°
orbit number at epoch: 49989

The dashed part of the orbit path shows where the satellite is in the earth's shadow,  

DLR